Kezdőlap
METAR-TAF:

METAR-TAF

Repülőterek :

Marshall County Airport

Lacon, Illinois, Amerikai Egyesült Államok

földrajzi szélesség: 41-01-09N, földrajzi hosszúság: 089-23-11W, magasság: 173 m

Jelenlegi meteorológiai megfigyelések

A jelentés 33 perccel ezelõtt készült, 15:55 UTC
Északi szél 5 kt
Hőmérséklet 12°C
Páratartalom 54%
Légköri nyomás 1028 hPa
Látótávolság: 16.1 km
Derült ég

METAR: KC75 111555Z AUTO 01005KT 10SM CLR 12/03 A3037 RMK AO2 T01180026

Idő: 11:28 (16:28 UTC)


TAF: hiányzik

Meteorológiai megfigyelések és előrejelzések több, mint 4000 repülőtéren (METAR és TAF jelentéseket).

A térképen piros és sárga pontok jelzik az elérhető meteorológiai állomásokat.

Mozgassa az egeret a pont fölött, hogy megjelenjen az állomás neve.

Azután kattintson az időjárási megfigyelések és előrejelzések megtekintéséhez.

A térkép megváltoztatása: kattintson a fekete keresztel jelölt zöld gombra ráközelítéshez, a vonallal jelölt zöld gombra távolításhoz, vagy a zöld nyilakra a szomszédos térképek eléréséhez.


METAR-TAF: